Location: Newark
(43.0000°N, 1.6781°W)
Time: 06:15:25
(UTC+00:00)

CAS-4B - Pass Details

Date: 09 December 2022
Orbit: 515 x 531 km, 43.0° (Epoch: 27 January)

Event Time Altitude Azimuth Distance (km) Brightness Sun altitude
Exits shadow 05:46:19 34° 251° (WSW) 878 ? -17.6°
Maximum altitude 05:47:59 80° 170° (S) 543 ? -17.3°
Drops below altitude 10° 05:52:04 10° 83° (E) 1,782 ? -16.5°
Sets 05:54:18 0° 82° (E) 2,676 ? -16.1°
